Regional Weather Roundup
Issued by NWS Grand Forks, ND

Home | Current Version | Previous Version | Text Only | Print | Product List | Glossary Off
Versions: 1 2 3 4 5 6 7 8 9 10 11 12 13 14 15 16 17 18 19 20 21 22 23 24 25 26 27 28 29 30 31 32 33 34 35 36 37 38 39 40 41 42 43 44 45 46 47 48 49 50

000
ASUS43 KFGF 241510
RWRFGF
PRAIRIE TO PINES  WEATHER ROUNDUP
NATIONAL WEATHER SERVICE EASTERN NORTH DAKOTA/GRAND FORKS ND
900 AM CST FRI NOV 24 2017

 **SATELLITE DATA USED TO AUGMENT SKY COVER AT AUTOMATED STATIONS**
 *****  WEATHER ACROSS EASTERN NORTH DAKOTA  *****

CITY           SKY/WX    TMP DP  RH WIND       PRES   REMARKS
GRAND FORKS    LGT RAIN  39  36  89 NW12      29.35R
GRAND FRKS AFB LGT RAIN  40  37  91 NW14      29.36R
GRAND FRKS NWS   N/A     36 N/A N/A NW6         N/A
DEVILS LAKE    CLOUDY    37  35  92 W13       29.40R
FARGO          MOCLDY    42  40  92 W5        29.32F
WAHPETON ARPT  NOT AVBL
$$

 ***** WEATHER ACROSS CENTRAL AND WESTERN NORTH DAKOTA  *****

CITY           SKY/WX    TMP DP  RH WIND       PRES   REMARKS
BISMARCK       LGT RAIN  46  42  86 NW13G22   29.54R
MINOT          FAIR      40  35  83 W17       29.49R
JAMESTOWN      CLOUDY    46  40  79 NW25G31   29.41R
MINOT AFB      FAIR      38  34  86 NW17      29.48R
GARRISON         N/A     39  36  89 NW20G28   29.52R
WILLISTON      LGT RAIN  39  35  86 SW5       29.61R
DICKINSON      FAIR      41  38  89 NW15      29.60R
HETTINGER      MOCLDY    43  37  79 NW22G32   29.65R
$$

 *****  OTHER AIRPORT OBSERVATIONS IN OUR AREA  *****

CITY           SKY/WX    TMP DP  RH WIND       PRES   REMARKS
WALHALLA       FAIR      41  41 100 W13G18    29.34R
GRAFTON AIRPOR FAIR      37  37 100 W12       29.37R
VALLEY CITY AR PTSUNNY   45  45 100 NW13      29.39R
CANDO          CLOUDY    37  37 100 W17       29.43R
CAVALIER APRT  FAIR      39  34  81 W13       29.34R
GWINNER          N/A     46  43  87 W9        29.36F
ROLLA          FAIR      39  32  75 NW12      29.40R
 ***** THE ABOVE OBSERVATIONS ARE NON NWS ARE NOT QUALITY
       CONTROLLED AND MAY MIS-REPORT RAIN FOR SNOW...
$$

  *****  WEATHER ACROSS NORTHERN MINNESOTA  *****

CITY           SKY/WX    TMP DP  RH WIND       PRES   REMARKS
FLAG ISLAND    CLOUDY    36  32  87 NW8       29.25R
WARROAD        MOCLDY    37  34  87 W6        29.29R
ROSEAU         CLOUDY    37  34  87 W7        29.30R
HALLOCK        CLOUDY    36  34  93 SW5       29.33R
THF RVR FALLS  MIX PCPN  37  35  92 W9        29.32R
BAUDETTE       CLOUDY    38  35  89 W5        29.25R
WASKISH        LGT RAIN  37  36  93 SW5       29.25F
CROOKSTON      CLOUDY    37  36  93 NW6       29.34R
STEPHEN NDAWN    N/A     36  34  93 W3          N/A
GREENBUSH NDAW   N/A     36  34  93 SW5         N/A
$$
  *****  WEATHER ACROSS CENTRAL AND WEST MINNESOTA  *****

CITY           SKY/WX    TMP DP  RH WIND       PRES   REMARKS
FOSSTON        MOCLDY    37  37 100 W7        29.32R
BEMIDJI        RAIN      41  40  93 SW6       29.26F
PARK RAPIDS    LGT RAIN  44  38  79 NW13      29.31R
ELBOW LAKE     FAIR      43  38  83 NW10      29.37S
WADENA         FAIR      45  37  76 W9        29.33R
DETROIT LAKES  LGT RAIN  45  39  81 SW3       29.33F
MOORHEAD       DRIZZLE   41  37  87 CALM      29.35R
FERGUS FALLS   LGT RAIN  45  37  76 NW13      29.38S
MORRIS MN      FAIR      48  37  66 NW13      29.36R
STAPLES        LGT RAIN  46  37  71 NW6       29.31S
$$
  *****  WEATHER ELSEWHERE ACROSS MINNESOTA  *****

CITY           SKY/WX    TMP DP  RH WIND       PRES   REMARKS
DULUTH         LGT RAIN  38  35  89 W10       29.25R
INTRNTL FALLS  CLOUDY    41  34  76 W5        29.22R
ELY            PTSUNNY   39  34  81 SW6       29.23S
CLOQUET        LGT RAIN  39  34  81 SW7       29.28R
WHEATON        FAIR      50  37  62 W7        29.40R
BRAINERD       PTSUNNY   42  36  79 CALM      29.30S
HIBBING        LGT RAIN  35  34  96 NW6       29.25S
ALEXANDRIA     LGT RAIN  47  38  71 W13       29.35R
SAINT CLOUD    FAIR      44  38  79 SW6       29.32R
MINNEAPOLIS    FAIR      50  40  68 SW9       29.34F
$$

  *****  WEATHER ACROSS SOUTH DAKOTA  *****

CITY           SKY/WX    TMP DP  RH WIND       PRES   REMARKS
SIOUX FALLS    FAIR      45  39  79 W5        29.44R
BROOKINGS      FAIR      36  34  92 CALM      29.42S
WATERTOWN      FAIR      48  38  68 W9        29.44R
HURON          FAIR      45  39  79 NW10      29.49R
SISSETON         N/A     56  39  53 NW18      29.38R
ABERDEEN       LGT RAIN  49  40  71 W6        29.46R
MITCHELL       FAIR      49  40  71 NW8       29.46R
PIERRE         MOCLDY    52  38  58 NW15G25   29.58R
MOBRIDGE       FAIR      52  44  74 W12       29.50R
RAPID CITY     FAIR      50  40  68 NW28G38   29.70R
$$

  *****  SOME WEATHER IN NEARBY STATES *****

CITY           SKY/WX    TMP DP  RH WIND       PRES   REMARKS
GLASGOW MT     FAIR      34  34 100 S6        29.72R
GREAT FALLS MT FAIR      34  22  61 SW14      29.84R WCI  25
CHEYENNE WY    FAIR      53  27  36 W18G25    29.84R
SCOTTSBLUFF NE FAIR      57  32  38 W13G22    29.74R
OMAHA NE       FAIR      51  40  65 S8        29.52F
DES MOINES IA  FAIR      55  37  50 SW13      29.52F
DAVENPORT IA   FAIR      50  34  54 S20       29.65F
CHICAGO IL     FAIR      46  30  53 SW17      29.71F
EAU CLAIRE WI  FAIR      50  37  61 S14       29.36F
LA CROSSE WI   FAIR      49  35  58 S10G18    29.45F
$$

  *****  SOME NATIONAL WEATHER *****

CITY           SKY/WX    TMP DP  RH WIND       PRES   REMARKS
LA GUARDIA NY  FAIR      44  24  45 CALM      30.05S
RALEIGH NC     FAIR      46  32  58 E6        30.07F
ATLANTA GA     FAIR      50  40  68 E3        30.05S
NEW ORLEANS LA FAIR      57  38  48 NE6       30.06R
OKLAHOMA CITY  PTSUNNY   50  35  56 S10       29.84S
ALBUQUERQUE NM FAIR      38  27  64 SE6       30.13S
SALT LAKE CITY MOCLDY    45  42  89 N8        30.00R
LOS ANGELES CA FAIR      60  49  66 E5        29.92R
BOISE ID       FAIR      46  43  89 W7        30.03R
SEATTLE WA     MOCLDY    47  41  80 S13       30.06S
$$

*** WEATHER ACROSS MANITOBA...SASKATCHEWAN AND ONTARIO ***
                ***ONTARIO***

CITY           SKY/WX    TMP DP  RH WIND       PRES   REMARKS
GERALDTON      CLOUDY    34  32  93 SW9       29.09F
THUNDER BAY    PTSUNNY   32  30  93 NW2       29.17R
SIOUX LOOKOUT  DRIZZLE   32  32 100 NW9       29.16R FOG     WCI  24
TORONTO        MOSUNNY   43  30  61 S12G18    29.81F
BIG TROUT LK   FLURRIES  10   7  85 S6        29.12R WCI   1
PICKLE LAKE    LGT SNOW  23  21  93 W13       29.09R FOG     WCI  11
DRYDEN         CLOUDY    34  34 100 W10       29.17R FOG
KENORA         CLOUDY    32  32 100 W7        29.21F FOG
$$
                *** MANITOBA***

CITY           SKY/WX    TMP DP  RH WIND       PRES   REMARKS
BRANDON        PTCLDY    34  32  93 W16       29.38R WCI  23
DAUPHIN        CLEAR     36  30  80 W23G31    29.32R
ISLAND LAKE    LGT SNOW  12   9  85 NW5       29.16R FOG     WCI   4
PILOT MOUND      N/A     37  34  87 W9          N/A
THE PAS        FLURRIES  16   9  73 NW15G22   29.36R WCI   1
THOMPSON       LGT SNOW   3  -2  78 N10G17    29.32R WCI -12
WINNIPEG       PTCLDY    32  32 100 W8        29.31R WCI  25
LYNN LAKE      LGT SNOW  -2  -6  84 N7        29.41R WCI -16
CHURCHILL      FLURRIES   0  -4  85 SW6       29.41R WCI -12
$$
                ***SASKATCHEWAN***

CITY           SKY/WX    TMP DP  RH WIND       PRES   REMARKS
ESTEVAN        PTCLDY    37  34  87 W17G23    29.53R
KINDERSLEY     PTCLDY    30  25  80 W17       29.61R WCI  18
LLOYDMINSTER   MOCLDY    32  27  80 W14       29.53R WCI  22
PRINCE ALBERT  MOCLDY    27  21  80 N7        29.48R WCI  19
REGINA         PTCLDY    34  32  93 W16       29.52R WCI  23
YORKTON        PTCLDY    34  30  86 W17G23    29.39R WCI  23
N. BATTLEFORD  PTCLDY    32  25  74 W13G18    29.55R WCI  22
LA RONGE       FLURRIES  12   5  73 W14       29.50R WCI  -3
SASKATOON      MOCLDY    30  25  80 W14       29.54R WCI  20
SWIFT CURRENT  CLEAR     32  30  93 W16G23    29.63R WCI  21
$$
NOTE: THESE ARE AUTOMATED STATIONS WITH LIMITED QUALITY CONTROL
      "FAIR" INDICATES FEW OR NO CLOUDS BELOW 12,000 FEET WITH NO
      SIGNIFICANT WEATHER AND/OR OBSTRUCTIONS TO VISIBILITY.
      SKY/WX - SKY CONDITION AND SIGNIFICANT WEATHER.
      TMP - AIR TEMPERATURE.    DP   - DEWPOINT TEMPERATURE.
      RH  - RELATIVE HUMIDITY.  PRES - PRESSURE.
      HX  - HEAT INDEX.         WCI  - WIND CHILL INDEX.
$




USA.gov is the U.S. government's official web portal to all federal, state and local government web resources and services.